Weather History for Sharm El Sheikh, Egypt

Change the Weather History Date:

Thursday, November 14, 2013

  Actual Average Record
Temperature  
Mean Temperature 79 °F -  
Max Temperature 89 °F - - ()
Min Temperature 69 °F - - ()
Cooling Degree Days 14    
Growing Degree Days 29 (Base 50)    
Moisture  
Dew Point 51 °F    
Average Humidity 40    
Maximum Humidity 53    
Minimum Humidity 26    
Precipitation  
Precipitation 0.00 in - - ()
Sea Level Pressure  
Sea Level Pressure 29.89 in    
Wind  
Wind Speed 6 mph ()    
Max Wind Speed 13 mph    
Max Gust Speed -    
T = Trace of Precipitation, MM = Missing Value Source: Averaged Metar Reports

Daily Weather History Graph

Daily Weather History Graph

Search for Another Location

Airport:

Trip Planner

Search our weather history database for the weather conditions in past years. The results will help you decide how hot, cold, wet, or windy it might be!

Date:

Astronomy

Nov. 14, 2013 Rise Set
Actual Time 6:03 AM EET 4:50 PM EET
Civil Twilight 5:38 AM EET 5:15 PM EET
Nautical Twilight 5:10 AM EET 5:43 PM EET
Astronomical Twilight 4:42 AM EET 6:11 PM EET
Moon 2:46 PM EET (11/14) 2:52 AM EET (11/14)
Length of Visible Light 11h 36m
Length of Day
10h 47m
Waxing Gibbous, 89% of the Moon is Illuminated
Nov 14
Waxing Gibbous
Nov 17
Full
Nov 25
Last Quarter
Dec 3
New
Dec 9
First Quarter

Hourly Weather History & Observations

Time (EET) Temp. Heat Index Dew Point Humidity Pressure Visibility Wind Dir Wind Speed Gust Speed Precip Events Conditions
12:00 AM 71.6 °F - 53.6 °F 53% 29.89 in - North 6.9 mph - N/A   Clear
1:00 AM 71.6 °F - 46.4 °F 41% 29.89 in - North 6.9 mph - N/A   Clear
2:00 AM 71.6 °F - 44.6 °F 38% 29.89 in - North 8.1 mph - N/A   Clear
3:00 AM 71.6 °F - 44.6 °F 38% 29.89 in - North 10.4 mph - N/A   Clear
4:00 AM 71.6 °F - 46.4 °F 41% 29.89 in - North 8.1 mph - N/A   Clear
5:00 AM 71.6 °F - 48.2 °F 43% 29.89 in - North 8.1 mph - N/A   Clear
6:00 AM 69.8 °F - 48.2 °F 46% 29.89 in - North 6.9 mph - N/A   Clear
7:00 AM 71.6 °F - 48.2 °F 43% 29.92 in - North 9.2 mph - N/A   Clear
8:00 AM 78.8 °F - 50.0 °F 36% 29.92 in - North 10.4 mph - N/A   Clear
9:00 AM 80.6 °F - 51.8 °F 37% 29.92 in - NNE 12.7 mph - N/A   Clear
10:00 AM 84.2 °F - 51.8 °F 33% 29.92 in - NNE 11.5 mph - N/A   Clear
11:00 AM 86.0 °F - 51.8 °F 31% 29.89 in - NNE 9.2 mph - N/A   Clear
12:00 PM 87.8 °F 85.7 °F 53.6 °F 31% 29.89 in - NNE 8.1 mph - N/A   Clear
1:00 PM 89.6 °F 87.3 °F 53.6 °F 29% 29.86 in - NE 8.1 mph - N/A   Clear
2:00 PM 89.6 °F - 50.0 °F 26% 29.86 in - ENE 4.6 mph - N/A   Clear
3:00 PM 89.6 °F - 50.0 °F 26% 29.86 in - ESE 4.6 mph - N/A   Clear
4:00 PM 84.2 °F - 51.8 °F 33% 29.86 in - SSE 3.5 mph - N/A   Clear
5:00 PM 78.8 °F - 55.4 °F 44% 29.86 in - Variable 1.2 mph - N/A   Clear
6:00 PM 75.2 °F - 55.4 °F 50% 29.86 in - Calm Calm - N/A   Clear
7:00 PM 71.6 °F - 53.6 °F 53% 29.86 in - North 2.3 mph - N/A   Clear
8:00 PM 73.4 °F - 55.4 °F 53% 29.89 in - West 2.3 mph - N/A   Clear
9:00 PM 71.6 °F - 50.0 °F 46% 29.89 in - Calm Calm - N/A   Clear
10:00 PM 69.8 °F - 50.0 °F 49% 29.89 in - North 1.2 mph - N/A   Clear
11:00 PM 69.8 °F - 50.0 °F 49% 29.86 in - North 3.5 mph - N/A   Clear